When you browse on this site, cookies collect data to enhance your experience and personalize the content and advertising you see.
Visit our Privacy Policy to learn more. By continuing to use the site, you agree to this use of cookies and data.
  • Em Portugal
  • Lista de países
  • Para 7 dias
  • Temperatura da água
  • Mapa do tempo
  • Widgets de tempo
  • user-avatar
    Iniciar Sessão

    Previsão horária em Montana

    Hoje, 1 Abril, Quarta-feira

    Tempo Temperatura Precipitação Vento Pressão Humidade
    00:00 -1°C° 0.9 mm 2 m/s 737 mmHg 96%
    01:00 -1°C° 0.9 mm 2 m/s 737 mmHg 96%
    02:00 -2°C° 0 mm 3 m/s 737 mmHg 96%
    03:00 -2°C° 0.6 mm 3 m/s 736 mmHg 95%
    04:00 -2°C° 0.6 mm 3 m/s 736 mmHg 95%
    05:00 -2°C° 0.6 mm 3 m/s 736 mmHg 94%
    06:00 -2°C° 0.6 mm 3 m/s 736 mmHg 94%
    07:00 -2°C° 0.6 mm 3 m/s 736 mmHg 94%
    08:00 -3°C° 0 mm 4 m/s 736 mmHg 94%
    09:00 -3°C° 0.9 mm 4 m/s 736 mmHg 95%
    10:00 -3°C° 0.9 mm 4 m/s 736 mmHg 95%
    11:00 -2°C° 0.9 mm 4 m/s 736 mmHg 95%
    12:00 -2°C° 0.8 mm 4 m/s 735 mmHg 95%
    13:00 -2°C° 0.8 mm 4 m/s 735 mmHg 95%
    14:00 -1°C° 0.8 mm 4 m/s 735 mmHg 95%
    15:00 0°C° 0.4 mm 3 m/s 734 mmHg 95%
    16:00 0°C° 0.4 mm 3 m/s 734 mmHg 95%
    17:00 +1°C° 0.4 mm 2 m/s 734 mmHg 95%
    18:00 +1°C° 0.4 mm 2 m/s 734 mmHg 96%
    19:00 -1°C° 0.4 mm 2 m/s 734 mmHg 96%
    20:00 +1°C° 0.4 mm 1 m/s 734 mmHg 97%
    21:00 +1°C° 0.5 mm 1 m/s 734 mmHg 97%
    22:00 +1°C° 0.5 mm 1 m/s 734 mmHg 97%
    23:00 +1°C° 0.5 mm 1 m/s 734 mmHg 98%

    Amanhã, 2 Abril, Quinta-feira

    Tempo Temperatura Precipitação Vento Pressão Humidade
    00:00 +1°C° 0.6 mm 1 m/s 734 mmHg 98%
    01:00 +2°C° 0.6 mm 1 m/s 734 mmHg 98%
    02:00 +2°C° 0.6 mm 1 m/s 735 mmHg 98%
    03:00 +2°C° 0.2 mm 1 m/s 734 mmHg 98%
    04:00 +1°C° 0.2 mm 1 m/s 734 mmHg 98%
    05:00 +1°C° 0.2 mm 1 m/s 734 mmHg 98%
    06:00 +1°C° 0.1 mm 1 m/s 734 mmHg 97%
    07:00 +1°C° 0.1 mm 1 m/s 735 mmHg 96%
    08:00 +1°C° 0.1 mm 1 m/s 735 mmHg 95%
    09:00 +2°C° 0 mm 1 m/s 735 mmHg 94%
    10:00 +3°C° 0 mm 1 m/s 734 mmHg 93%
    11:00 +3°C° 0 mm 1 m/s 734 mmHg 92%
    12:00 +3°C° 0 mm 1 m/s 734 mmHg 92%
    13:00 +4°C° 0 mm 1 m/s 734 mmHg 92%
    14:00 +4°C° 0 mm 1 m/s 734 mmHg 92%
    15:00 +4°C° 0 mm 1 m/s 733 mmHg 91%
    16:00 +4°C° 0 mm 1 m/s 733 mmHg 91%
    17:00 +5°C° 0 mm 1 m/s 732 mmHg 91%
    18:00 +4°C° 0 mm 1 m/s 732 mmHg 91%
    19:00 +3°C° 0 mm 1 m/s 733 mmHg 91%
    20:00 +2°C° 0 mm 1 m/s 733 mmHg 92%
    21:00 +2°C° 0 mm 1 m/s 733 mmHg 90%
    22:00 +2°C° 0 mm 1 m/s 733 mmHg 89%
    23:00 +2°C° 0 mm 1 m/s 733 mmHg 88%

    Depois de amanhã, 3 Abril, Sexta-feira

    Tempo Temperatura Precipitação Vento Pressão Humidade
    00:00 +2°C° 0 mm 1 m/s 733 mmHg 88%
    01:00 +2°C° 0 mm 1 m/s 732 mmHg 88%
    02:00 +1°C° 0 mm 1 m/s 732 mmHg 87%
    03:00 +1°C° 0 mm 1 m/s 732 mmHg 88%
    04:00 +1°C° 0 mm 1 m/s 732 mmHg 89%
    05:00 +1°C° 0 mm 1 m/s 732 mmHg 89%
    06:00 +2°C° 0 mm 1 m/s 732 mmHg 90%
    07:00 +3°C° 0 mm 1 m/s 732 mmHg 91%
    08:00 +4°C° 0 mm 1 m/s 732 mmHg 92%
    09:00 +5°C° 0 mm 1 m/s 732 mmHg 89%
    10:00 +6°C° 0 mm 1 m/s 733 mmHg 87%
    11:00 +7°C° 0 mm 1 m/s 733 mmHg 85%
    12:00 +8°C° 0 mm 1 m/s 732 mmHg 83%
    13:00 +9°C° 0 mm 1 m/s 732 mmHg 81%
    14:00 +10°C° 0 mm 1 m/s 732 mmHg 79%
    15:00 +10°C° 0 mm 1 m/s 732 mmHg 80%
    16:00 +10°C° 0 mm 1 m/s 732 mmHg 81%
    17:00 +10°C° 0 mm 1 m/s 732 mmHg 81%
    18:00 +9°C° 0 mm 1 m/s 732 mmHg 85%
    19:00 +8°C° 0 mm 1 m/s 732 mmHg 88%
    20:00 +6°C° 0 mm 1 m/s 733 mmHg 91%
    21:00 +6°C° 0 mm 1 m/s 733 mmHg 90%
    22:00 +6°C° 0 mm 1 m/s 733 mmHg 88%
    23:00 +6°C° 0 mm 1 m/s 734 mmHg 87%

    4 Abril, Sábado

    Tempo Temperatura Precipitação Vento Pressão Humidade
    00:00 +6°C° 0 mm 1 m/s 734 mmHg 86%
    01:00 +5°C° 0 mm 0 m/s 734 mmHg 86%
    02:00 +5°C° 0 mm 0 m/s 734 mmHg 85%
    03:00 +5°C° 0 mm 0 m/s 734 mmHg 85%
    04:00 +5°C° 0 mm 0 m/s 734 mmHg 85%
    05:00 +5°C° 0 mm 0 m/s 734 mmHg 85%
    06:00 +6°C° 0 mm 0 m/s 734 mmHg 84%
    07:00 +7°C° 0 mm 0 m/s 735 mmHg 84%
    08:00 +7°C° 0 mm 0 m/s 735 mmHg 83%
    09:00 +9°C° 0 mm 1 m/s 735 mmHg 79%
    10:00 +10°C° 0 mm 1 m/s 735 mmHg 75%
    11:00 +12°C° 0 mm 1 m/s 736 mmHg 71%
    12:00 +12°C° 0.1 mm 2 m/s 736 mmHg 70%
    13:00 +12°C° 0.1 mm 2 m/s 736 mmHg 68%
    14:00 +13°C° 0.1 mm 2 m/s 736 mmHg 67%
    15:00 +13°C° 0.1 mm 2 m/s 735 mmHg 68%
    16:00 +12°C° 0.1 mm 1 m/s 735 mmHg 70%
    17:00 +12°C° 0.1 mm 1 m/s 735 mmHg 72%
    18:00 +11°C° 0.1 mm 1 m/s 736 mmHg 76%
    19:00 +10°C° 0.1 mm 1 m/s 736 mmHg 79%
    20:00 +9°C° 0.1 mm 1 m/s 736 mmHg 83%
    21:00 +9°C° 0.1 mm 1 m/s 737 mmHg 84%
    22:00 +9°C° 0.1 mm 1 m/s 737 mmHg 85%
    23:00 +9°C° 0.1 mm 1 m/s 737 mmHg 86%

    5 Abril, Domingo

    Tempo Temperatura Precipitação Vento Pressão Humidade
    00:00 +8°C° 0 mm 1 m/s 737 mmHg 87%
    01:00 +8°C° 0 mm 1 m/s 737 mmHg 88%
    02:00 +8°C° 0 mm 1 m/s 738 mmHg 88%
    03:00 +8°C° 0 mm 1 m/s 738 mmHg 89%
    04:00 +8°C° 0 mm 1 m/s 738 mmHg 90%
    05:00 +8°C° 0 mm 1 m/s 738 mmHg 91%
    06:00 +7°C° 0 mm 2 m/s 738 mmHg 90%
    07:00 +7°C° 0 mm 3 m/s 739 mmHg 89%
    08:00 +6°C° 0 mm 4 m/s 739 mmHg 88%
    09:00 +7°C° 0 mm 5 m/s 739 mmHg 81%
    10:00 +8°C° 0 mm 6 m/s 739 mmHg 73%
    11:00 +9°C° 0 mm 7 m/s 739 mmHg 65%
    12:00 +9°C° 0.1 mm 6 m/s 739 mmHg 67%
    13:00 +10°C° 0.1 mm 6 m/s 739 mmHg 69%
    14:00 +10°C° 0.1 mm 6 m/s 739 mmHg 71%
    15:00 +10°C° 0.1 mm 6 m/s 739 mmHg 72%
    16:00 +10°C° 0.1 mm 6 m/s 739 mmHg 72%
    17:00 +10°C° 0.1 mm 6 m/s 739 mmHg 72%
    18:00 +9°C° 0.1 mm 5 m/s 740 mmHg 73%
    19:00 +8°C° 0.1 mm 5 m/s 740 mmHg 73%
    20:00 +7°C° 0.1 mm 4 m/s 741 mmHg 73%
    21:00 +6°C° 0 mm 4 m/s 741 mmHg 70%
    22:00 +6°C° 0 mm 4 m/s 742 mmHg 66%
    23:00 +5°C° 0 mm 4 m/s 742 mmHg 62%

    6 Abril, Segunda-feira

    Tempo Temperatura Precipitação Vento Pressão Humidade
    00:00 +4°C° 0 mm 3 m/s 743 mmHg 64%
    01:00 +3°C° 0 mm 3 m/s 743 mmHg 65%
    02:00 +4°C° 0 mm 2 m/s 744 mmHg 67%
    03:00 +2°C° 0 mm 3 m/s 744 mmHg 68%
    04:00 +2°C° 0 mm 3 m/s 745 mmHg 69%
    05:00 +1°C° 0 mm 3 m/s 745 mmHg 70%
    06:00 +1°C° 0 mm 4 m/s 746 mmHg 66%
    07:00 +1°C° 0 mm 4 m/s 746 mmHg 62%
    08:00 +1°C° 0 mm 5 m/s 747 mmHg 58%
    09:00 +2°C° 0 mm 5 m/s 747 mmHg 54%
    10:00 +3°C° 0 mm 5 m/s 747 mmHg 50%
    11:00 +5°C° 0 mm 5 m/s 747 mmHg 46%
    12:00 +6°C° 0 mm 5 m/s 747 mmHg 45%
    13:00 +7°C° 0 mm 5 m/s 747 mmHg 44%
    14:00 +7°C° 0 mm 5 m/s 747 mmHg 43%
    15:00 +7°C° 0 mm 5 m/s 747 mmHg 45%
    16:00 +7°C° 0 mm 4 m/s 747 mmHg 46%
    17:00 +7°C° 0 mm 4 m/s 747 mmHg 48%
    18:00 +7°C° 0 mm 3 m/s 747 mmHg 53%
    19:00 +4°C° 0 mm 3 m/s 747 mmHg 58%
    20:00 +4°C° 0 mm 2 m/s 748 mmHg 63%
    21:00 +3°C° 0 mm 2 m/s 748 mmHg 62%
    22:00 +3°C° 0 mm 2 m/s 749 mmHg 60%
    23:00 +3°C° 0 mm 2 m/s 749 mmHg 59%
    Mostrar mais